Location: Kanab
(37.0481°N, 112.5285°W)
Time: 19:37:01
(UTC-06:00)

N. Korean satellite - Visible Passes

Search period start: 20 October 2021 00:00
Search period end: 30 October 2021 00:00
Orbit: 450 x 495 km, 97.3° (Epoch: 20 October)

Date Brightness Start Highest point End Pass type
(mag) Time Alt. Az. Time Alt. Az. Time Alt. Az.
20 Oct 8.6 06:13:16 10° NNE 06:16:33 30° E 06:19:47 10° SSE visible
21 Oct 10.0 05:46:27 10° ENE 05:48:20 13° E 05:50:11 10° ESE visible
22 Oct 6.5 06:49:58 10° N 06:53:38 78° WNW 06:57:14 10° SSW visible
23 Oct 8.0 06:22:04 10° NNE 06:25:32 40° E 06:28:57 10° S visible
24 Oct 9.6 05:54:50 10° NE 05:57:19 17° E 05:59:47 10° SE visible
25 Oct 6.6 06:58:56 10° N 07:02:31 57° WNW 07:06:03 10° SSW visible
25 Oct 10.2 19:05:52 10° WSW 19:07:27 12° W 19:09:02 10° WNW visible
26 Oct 7.3 06:30:51 10° NNE 06:34:26 55° E 06:37:57 10° S visible
27 Oct 9.2 06:03:19 10° NE 06:06:13 22° E 06:09:05 10° SSE visible
28 Oct 6.9 07:07:51 10° N 07:11:18 42° WNW 07:14:42 10° SW visible
29 Oct 6.7 06:39:36 10° NNE 06:43:14 75° E 06:46:47 10° S visible
